Location: *
(55.5817°S, 142.4781°W)
Time: 22:30:20
(UTC+00:00)

Daily predictions for brighter satellites

Satellite Brightness Start Highest point End
(mag) Time Altitude Azimuth Time Altitude Azimuth Time Altitude Azimuth
ACS3 Solar Sail 4.3 12:06:30 10° E 12:10:26 17° SE 12:14:24 10° S
Cosmos 2263 Rocket 3.8 12:16:05 30° SE 12:16:05 30° SE 12:20:12 10° E
Cosmos 2369 Rocket 4.0 12:23:26 26° SSE 12:23:26 26° SSE 12:25:59 10° SSE
ADEOS Rocket 3.8 12:26:29 49° SSE 12:26:29 49° SSE 12:31:57 10° SSW
Cosmos 2227 Rocket 4.1 12:32:57 22° ENE 12:32:57 22° ENE 12:35:00 10° NE
Cosmos 2278 Rocket 4.2 12:51:01 19° S 12:51:01 19° S 12:54:38 10° SSE
Cosmos 2100 Rocket 4.3 13:01:07 60° ENE 13:01:42 63° E 13:07:53 10° SSE
Cosmos 1818 4.2 13:06:36 53° ESE 13:06:36 53° ESE 13:11:19 10° ENE
BREEZE-M DEB (TANK) 4.4 13:08:32 60° NNW 13:08:51 60° NNW 13:31:39 10° NE
Cosmos 1943 Rocket 4.2 13:10:56 18° SSW 13:11:13 18° S 13:15:06 10° SSE
ARIANE 5 R/B 3.7 13:20:55 10° NE 13:25:36 40° ESE 13:30:20 10° S
CZ-2C R/B 4.4 13:21:24 10° S 13:23:54 22° SSW 13:23:54 22° SSW
IRAS Rocket 4.4 13:25:58 10° NNE 13:31:33 70° ESE 13:37:09 10° SSW
Cosmos 2219 3.4 13:31:11 43° SSW 13:32:58 67° SE 13:38:37 10° NE
ATLAS 5 CENTAUR R/B 2.9 13:33:49 49° NNW 13:35:47 69° NE 13:42:30 10° SE
ATLAS 2AS CENTAUR R/B 3.5 13:33:53 34° SW 13:36:36 47° S 13:43:45 10° E
Cosmos 2360 4.3 13:35:59 61° N 13:36:50 72° ENE 13:42:35 10° SE
Cosmos 1725 Rocket 4.2 13:33:12 19° N 13:37:56 70° E 13:44:19 10° SSE
Cosmos 2150 Rocket 4.4 13:37:46 49° NNE 13:39:02 64° ENE 13:44:29 10° SSE
Cosmos 1844 Rocket 4.2 13:40:56 15° SSW 13:44:55 32° SE 13:49:57 10° E
Cosmos 1864 Rocket 4.4 13:46:25 28° N 13:49:52 87° E 13:56:12 10° SSE
Cosmos 1697 Rocket 3.2 13:47:47 29° N 13:50:31 57° ENE 13:56:08 10° SE
Meteor 2-5 Rocket 4.1 13:44:45 10° S 13:50:33 64° ESE 13:56:10 10° NNE
Cosmos 1140 Rocket 3.7 13:48:19 28° SSW 13:51:06 69° ESE 13:56:21 10° NE
ACS3 Solar Sail 2.5 13:46:28 10° NE 13:52:36 56° ESE 13:58:51 10° S
Cosmos 1656 3.5 13:53:35 68° WSW 13:53:46 69° SW 13:59:16 10° SSE
NOSS 3-3 (A) 4.5 13:52:49 48° W 13:55:16 70° SSW 14:02:23 10° SE
Cosmos 1633 Rocket 3.4 13:57:40 55° S 13:57:40 55° S 14:01:12 10° S
SL-16 R/B 2.8 13:50:43 10° SSE 13:57:04 68° ENE 14:03:19 10° N
SJ 16-02 4.1 13:55:57 10° S 13:58:11 14° SE 14:00:25 10° ESE
CZ-4C R/B 4.5 13:51:01 10° N 13:58:22 33° ENE 14:04:39 10° ESE
Cosmos 2084 4.3 14:00:52 41° N 14:00:52 41° N 14:04:00 10° NNE
Cosmos 2263 Rocket 2.0 13:57:49 43° SW 13:59:45 83° WNW 14:05:21 10° NNE
Tsikada Rocket 3.9 13:53:46 10° SSW 14:00:19 82° W 14:06:47 10° N
Cosmos 1455 4.3 14:04:06 14° SSE 14:04:06 14° SSE 14:04:38 10° SSE
Cosmos 1703 Rocket 3.4 14:02:22 65° SSW 14:03:02 89° WNW 14:07:28 10° N
SMAP 4.0 13:59:33 10° NE 14:04:04 48° ESE 14:08:39 10° S
Cosmos 2173 Rocket 4.0 14:03:46 49° WNW 14:05:03 58° WSW 14:11:15 10° S
Cosmos 2369 Rocket 3.7 14:05:12 21° SSW 14:05:45 22° SSW 14:10:03 10° SSE
Meteor 2-17 Rocket 4.3 13:59:35 10° SSW 14:05:49 78° W 14:12:01 10° N
Blok-L 4.3 14:08:18 39° SW 14:09:45 68° SE 14:16:34 10° ENE
Cosmos 1125 Rocket 3.8 14:10:38 46° SW 14:10:38 46° SW 14:15:46 10° SSE
ADEOS Rocket 4.0 14:13:25 30° SW 14:13:25 30° SW 14:17:23 10° SSW
Cosmos 2227 Rocket 2.9 14:14:52 34° NW 14:14:52 34° NW 14:18:38 10° N
Cosmos 1459 Rocket 4.1 14:15:09 40° WNW 14:16:59 53° WSW 14:23:18 10° S
Cosmos 2082 3.6 14:14:31 23° SW 14:18:12 86° WNW 14:23:51 10° NNE
Meteor 1-22 Rocket 4.3 14:14:56 10° N 14:20:14 71° E 14:25:40 10° SSE
Cosmos 1758 3.0 14:22:25 66° NNW 14:22:55 82° WSW 14:26:50 10° S
Cosmos 2233 Rocket 4.0 14:19:00 10° NNW 14:25:22 84° WSW 14:31:50 10° S
Cosmos 1607 4.2 14:24:09 38° W 14:26:17 53° SSW 14:32:34 10° SE
Cosmos 1023 Rocket 4.4 14:24:39 24° SW 14:27:50 67° WNW 14:33:03 10° NNE
Cosmos 1802 Rocket 4.1 14:24:47 22° NW 14:28:58 56° WSW 14:35:24 10° S
USA 290 3.5 14:27:31 23° S 14:29:16 42° SE 14:32:31 10° NE
GEOS 3 Rocket 4.3 14:24:44 10° SE 14:29:42 42° SSW 14:31:17 33° WSW
SL-08 R/B 4.4 14:23:56 10° NNW 14:30:05 68° WSW 14:36:16 10° S
IRS-P3 4.1 14:27:46 10° NNE 14:33:10 89° WNW 14:38:39 10° SSW
JB-3 4.5 14:29:38 10° SSE 14:33:29 71° ENE 14:37:20 10° N
RESURS DK-1 2.4 14:31:53 32° SSW 14:33:42 77° SE 14:37:44 10° NE
SJ-12 3.7 14:31:12 10° NNE 14:35:09 78° WNW 14:39:10 10° SSW
Cosmos 1461 3.5 14:36:45 32° NNW 14:36:45 32° NNW 14:39:12 10° NNE
Cosmos 1269 Rocket 4.3 14:34:40 32° WSW 14:36:36 45° WNW 14:41:38 10° N
SL-12 R/B(2) 4.1 14:29:22 17° SW 14:36:45 81° NW 14:44:25 10° NE
Cosmos 2278 Rocket 4.2 14:32:52 10° SSW 14:36:55 19° SSE 14:40:58 10° ESE
Cosmos 1666 Rocket 4.5 14:39:01 31° SW 14:39:01 31° SW 14:42:27 10° S
Elektron 3 4.0 14:38:26 57° WSW 14:38:49 63° SSW 14:43:06 10° ESE
SL-19 R/B 4.1 14:37:39 10° NNE 14:40:34 61° ESE 14:43:34 11° SSW
Aureole 3 4.2 14:34:12 10° SSW 14:40:40 73° W 14:46:04 10° N
Cosmos 192 4.5 14:40:34 34° WNW 14:42:28 54° SW 14:47:23 10° SSE
Cosmos 2298 Rocket 4.3 14:45:49 29° WNW 14:48:17 50° SW 14:53:32 10° SSE
Cosmos 1844 4.3 14:42:29 10° SSW 14:48:17 60° SE 14:54:04 10° NE
UNK 3.6 14:44:04 10° SSE 14:48:43 75° WSW 14:53:20 10° NNW
Cosmos 1818 3.9 14:47:15 29° WSW 14:49:31 46° NW 14:54:39 10° NNE
Cosmos 2061 Rocket 4.0 14:44:04 10° NNW 14:50:23 63° WSW 14:56:44 10° S
IRS-1C 4.2 14:45:30 10° N 14:50:46 54° W 14:56:05 10° SSW
Nadezhda 4 Rocket 4.3 14:45:05 10° S 14:51:32 74° ESE 14:57:53 10° NNE
Helios 1A Rocket 2.8 14:48:13 10° S 14:51:47 48° WSW 14:52:48 36° WNW
Cosmos 1980 Rocket 2.4 14:47:04 10° NNW 14:52:44 75° ENE 14:58:30 10° SE
CZ-2D R/B 3.1 14:49:49 10° N 14:53:09 47° W 14:54:18 33° SW
Cosmos 1190 Rocket 4.3 14:48:05 10° SSW 14:53:21 68° ESE 14:58:34 10° NE
Cosmos 1943 Rocket 4.2 14:52:59 10° SSW 14:57:10 20° SSE 15:01:20 10° ESE
SL-24 R/B 4.2 14:55:53 10° NNE 14:59:37 66° ESE 15:03:43 10° S
Cosmos 1271 Rocket 3.0 15:00:00 33° WSW 15:00:46 37° W 15:04:05 10° NNW
Aureole 3 Rocket 3.5 14:58:35 10° N 15:01:34 44° E 15:04:43 10° SSE
SL-4 R/B 3.4 15:00:22 13° NW 15:03:34 33° NNE 15:07:18 10° E
Cosmos 1470 Rocket 4.2 15:02:47 27° W 15:04:07 32° WSW 15:08:06 10° S
ARIANE 5 R/B 2.8 14:59:52 10° N 15:04:40 42° W 15:09:30 10° SSW
Meteor 2-10 Rocket 4.1 14:59:14 10° NW 15:04:47 43° WSW 15:10:18 10° S
PSLV R/B 3.6 15:01:31 10° NNE 15:05:47 80° ESE 15:10:05 10° SSW
Meteor 1-24 Rocket 4.0 15:02:54 10° SSW 15:07:55 38° W 15:12:48 10° NNW
Orbus 7S? 4.3 15:03:13 20° W 15:09:05 79° S 15:13:05 10° E
Cosmos 1954 Rocket 4.2 15:07:41 10° SSW 15:12:59 76° ESE 15:18:15 10° NNE
Meteor 1-21 Rocket 4.5 15:07:55 10° SSW 15:13:37 72° ESE 15:19:11 10° NNE
Spot 4 Rocket 4.0 15:09:01 10° NNE 15:14:11 82° WNW 15:19:25 10° SSW
Cosmos 1933 Rocket 3.9 15:11:49 10° NW 15:16:08 45° WSW 15:20:29 10° S
Cosmos 2219 3.9 15:13:08 16° SW 15:16:45 31° WNW 15:21:36 10° NNW
Meteor 1-16 Rocket 4.4 15:11:12 10° N 15:16:53 82° ENE 15:22:49 10° SSE
ATLAS 5 CENTAUR R/B 2.8 15:13:49 17° W 15:19:21 58° SSW 15:25:42 10° SE
Meteor 1-15 Rocket 4.3 15:14:14 10° NNW 15:19:52 55° WSW 15:25:29 10° S
Intercosmos 24 4.0 15:17:47 10° SSW 15:21:19 43° W 15:24:54 10° NNW
Cosmos 1378 Rocket 3.6 15:17:02 10° SSW 15:21:28 86° ESE 15:25:49 10° NNE
Cosmos 407 Rocket 3.8 15:17:43 10° SW 15:22:49 46° WNW 15:27:54 10° N
Blok-ML 4.5 15:20:33 18° W 15:23:24 45° SSW 15:28:14 10° ESE
Cosmos 2242 Rocket 3.8 15:22:39 10° SSW 15:26:59 49° W 15:31:16 10° N
Cosmos 1869 Rocket 3.7 15:22:48 10° NNW 15:27:13 52° WSW 15:31:38 10° S
Meteor 1-12 Rocket 4.3 15:22:16 10° NNW 15:28:06 71° WSW 15:34:09 10° SSE
ATLAS 2AS CENTAUR R/B 3.0 15:21:18 11° SW 15:28:28 78° SE 15:35:58 10° ENE
SL-19 R/B 4.2 15:23:49 10° N 15:29:00 58° WNW 15:34:15 10° SSW
Cosmos 2227 4.3 15:23:16 10° SW 15:29:01 64° WNW 15:34:44 10° NNE
Cosmos 1844 Rocket 2.6 15:23:42 10° SW 15:29:22 79° WNW 15:34:58 10° NNE
CZ-2D R/B 3.6 15:25:45 10° N 15:29:27 43° W 15:33:15 10° SSW
Cosmos 1140 Rocket 4.5 15:28:19 11° SW 15:32:24 25° W 15:36:37 10° NNW
Cosmos 1697 Rocket 3.2 15:29:32 11° WNW 15:34:44 41° SW 15:40:10 10° SSE
Cosmos 2026 Rocket 4.1 15:29:04 10° S 15:35:15 83° ESE 15:41:24 10° NNE
Meteor 1-31 Rocket 3.7 15:31:46 10° NE 15:35:22 48° ESE 15:38:58 10° S
Cosmos 1072 Rocket 4.4 15:29:31 10° NNW 15:35:46 76° WSW 15:42:02 10° S
ACS3 Solar Sail 2.3 15:30:24 10° NNW 15:36:15 39° W 15:42:13 10° SSW
SJ 16-02 2.2 15:33:09 10° SSW 15:37:26 51° ESE 15:41:40 10° NE
Cosmos 2251 Rocket 3.8 15:32:52 10° SW 15:38:03 50° WNW 15:43:08 10° N
CZ-4 R/B 4.4 15:35:19 10° N 15:39:22 70° WNW 15:43:30 10° SSW
SL-16 R/B 3.2 15:34:40 10° S 15:40:18 35° SW 15:45:53 10° WNW
SMAP 3.8 15:37:26 10° NNW 15:41:37 31° W 15:45:51 10° SSW
Cosmos 2263 Rocket 3.5 15:39:34 12° WSW 15:42:51 19° W 15:46:40 10° NW
YAOGAN 1 2.7 15:40:50 10° NNE 15:45:10 80° ESE 15:49:33 10° SSW
IGS 5A 4.3 15:42:05 10° NNW 15:45:39 29° W 15:49:17 10° SSW
CZ-4C R/B 3.0 15:38:01 10° NW 15:46:27 85° NE 15:53:09 10° SE
Cosmos 1674 Rocket 3.6 15:42:26 10° SSW 15:46:58 73° W 15:51:26 10° N
CZ-4 R/B 3.6 15:44:19 10° ENE 15:47:18 22° ESE 15:50:18 10° S
Cosmos 1025 Rocket 3.3 15:43:02 10° S 15:47:29 76° ESE 15:51:54 10° NNE
Cosmos 1953 2.5 15:43:58 10° NW 15:47:34 42° WSW 15:51:15 10° S
Cosmos 1092 Rocket 4.1 15:41:55 10° SSW 15:48:22 88° W 15:54:41 10° N
BREEZE-M DEB (TANK) 4.4 15:35:20 12° W 15:48:25 63° NNW 15:52:10 10° ENE
Cosmos 2221 Rocket 3.7 15:45:36 10° SSW 15:50:14 86° W 15:54:51 10° N
Cosmos 2369 Rocket 4.1 15:48:14 10° SW 15:51:55 17° S 15:55:35 10° SE
CZ-2C R/B 4.3 15:49:21 10° NE 15:52:29 32° ESE 15:55:38 10° S
Cosmos 676 Rocket 4.0 15:51:38 10° SSW 15:56:52 69° WNW 16:02:05 10° NNE
COSMO-SKYMED 1 2.7 15:53:42 10° SSE 15:58:07 84° ENE 16:02:29 10° NNW
Radarsat Rocket 4.4 15:51:40 10° NNE 15:59:04 78° WNW 16:05:38 10° SSW
SeaSat 1 4.0 15:57:20 10° E 16:01:35 29° SE 16:05:51 10° SSW
USA 290 3.7 16:00:50 10° SW 16:03:31 22° WNW 16:06:11 10° NNW
SJ-6B 3.6 15:59:53 10° NE 16:03:36 52° ESE 16:07:19 10° S
Cosmos 1975 Rocket 4.3 16:00:48 10° S 16:05:05 45° ESE 16:09:18 10° NE
In-Cosmos 22 Rocket 4.4 15:59:49 10° SSW 16:05:31 56° W 16:11:03 10° N
Okean O Rocket 4.1 16:07:02 10° E 16:10:01 18° SE 16:13:01 10° S
RESURS DK-1 3.9 16:07:58 10° WSW 16:10:43 18° WNW 16:13:26 10° NNW
Cosmos 1733 Rocket 3.4 16:06:44 10° NNW 16:11:05 48° WSW 16:15:28 10° S
Resurs 01 Rocket 2.5 16:11:39 10° NE 16:15:59 54° ESE 16:20:24 10° S
